Miscellaneous Local Product
Issued by NWS North Platte, NE

Home | Current Version | Previous Version | Text Only | Print | Product List | Glossary On
Versions: 1 2 3 4 5 6 7 8 9 10 11 12 13 14 15 16 17 18 19 20 21 22 23 24 25 26 27 28 29 30 31 32 33 34 35 36 37 38 39 40 41 42 43 44 45 46 47 48 49 50
140
AXUS43 KLBF 201510
MISLBF


WESTERN AND NORTH CENTRAL NEBRASKA HOURLY WEATHER ROUNDUP
NATIONAL WEATHER SERVICE NORTH PLATTE NE
1000 AM CDT WED SEP 20 2017

NOTE: "FAIR" INDICATES FEW OR NO CLOUDS BELOW 12,000 FEET WITH NO
SIGNIFICANT WEATHER AND/OR OBSTRUCTIONS TO VISIBILITY.

NOTE: STATIONS NOT REPORTING VARIABLES SUCH AS SKY/WEATHER OR
PRESSURE ARE PROVIDED BY RAWS AND APRS NETWORKS AND ARE NOT UNDER
NATIONAL WEATHER SERVICE QUALITY CONTROL.

...OBSERVATIONS IN AND NEAR THE EASTERN PANHANDLE OF NEBRASKA...

CITY           SKY/WX    TMP DP  RH WIND       PRES   REMARKS
GORDON         FAIR      57  30  35 W15       29.90R
CHADRON        SUNNY     58  24  27 SW17      29.89S
ALLIANCE       CLOUDY    54  31  41 W14       29.92R
SIDNEY         SUNNY     59  25  27 NW10      29.98S
CRESCENT LAKE    N/A     57  30  36 W8          N/A
$$

...OBSERVATIONS IN NORTHERN NEBRASKA AND FAR SOUTHERN SOUTH DAKOTA...

CITY           SKY/WX    TMP DP  RH WIND       PRES   REMARKS
WINNER         FAIR      60  47  61 SW8       29.86S
VALENTINE      SUNNY     59  46  62 S8        29.89R
THEDFORD       SUNNY     62  38  41 W9        29.93R
AINSWORTH      MOSUNNY   58  47  66 SW5       29.91R
O`NEILL        SUNNY     59  49  67 W7        29.89R
ORD            SUNNY     61  46  57 NW8       29.89R
BROKEN BOW     SUNNY     60  47  61 W5        29.92R
VALENTINE NWR    N/A     54  48  81 S5          N/A
HALSEY           N/A     56  42  58 CALM        N/A
BUTTE            N/A     57  48  72 W8          N/A
CHAMBERS         N/A     60  46  60 W3          N/A
EWING            N/A     60  52  75 NW6         N/A
$$

...OBSERVATIONS IN SOUTHWEST NEBRASKA AND FAR NORTHEAST COLORADO...

CITY           SKY/WX    TMP DP  RH WIND       PRES   REMARKS
WRAY           FAIR      57  32  38 W3        30.00S
IMPERIAL       SUNNY     58  36  43 W5        29.99R
OGALLALA       SUNNY     55  41  60 SW3       29.97R
NORTH PLATTE   SUNNY     59  44  57 NW6       29.95S
MCCOOK         SUNNY     60  41  49 W3        29.95S
LEXINGTON      SUNNY     58  45  62 W7        29.94R
STAPLETON        N/A     59  44  56 CALM        N/A
GOTHENBURG       N/A     52  38  59 W3          N/A
CALLAWAY         N/A     51  46  84 NW5         N/A
$$

...OBSERVATIONS IN CENTRAL LINCOLN COUNTY AREA...

CITY           SKY/WX    TMP DP  RH WIND       PRES   REMARKS
N.P. AIRPORT   SUNNY     59  44  57 NW6       29.95S
N.P. DOWNTOWN    N/A     58  43  57 CALM        N/A
N.P. SOUTHEAST   N/A     58  42  56 CALM        N/A
N.P. HILLCREST   N/A     55  43  65 W7          N/A
$$

...SOME OBSERVATIONS FROM AROUND THE REGION...

CITY           SKY/WX    TMP DP  RH WIND       PRES   REMARKS
DENVER         MOSUNNY   56  30  37 SE23G30   29.99S
LIMON          SUNNY     53  28  38 S10       30.07R
ASPEN          SUNNY     51  33  50 CALM      30.06F
LARAMIE        CLOUDY    46  27  47 SW12      30.00S
CASPER         SUNNY     48  28  46 SW21G31   29.92S
CHEYENNE       CLOUDY    50  31  48 SW13      30.00S
SCOTTSBLUFF    CLOUDY    58  30  34 NW17      29.92S
GRAND ISLAND   SUNNY     63  50  62 NW12      29.90R
OMAHA          SUNNY     70  54  56 N18       29.79R
SIOUX FALLS    MOSUNNY   61  52  72 NW14      29.83R
PIERRE         SUNNY     56  42  59 SW9       29.82R
RAPID CITY     SUNNY     50  39  66 S7        29.83R
BISMARCK       SUNNY     54  44  69 SW10      29.73R
KANSAS CITY    MOSUNNY   79  72  79 S20G25    29.79S
HILL CITY      SUNNY     65  41  41 N15       29.95R
WICHITA        MOSUNNY   81  67  62 SW16      29.79R
DODGE CITY     CLOUDY    66  39  37 N21G30    29.90S
OKLAHOMA CITY  MOSUNNY   81  71  71 S20G25    29.82R
DALLAS         PTSUNNY   84  72  67 S21       29.89R
AMARILLO       SUNNY     62  38  40 N16       29.97R
$$




USA.gov is the U.S. government's official web portal to all federal, state and local government web resources and services.